GLOBALSTAR M001 1 25162U 98008A 22146.08249788 -.00000142 00000-0 -34935-3 0 9998 2 25162 52.0055 347.3315 0002309 72.2370 79.6145 12.38141470105319 GLOBALSTAR M004 1 25163U 98008B 22146.23575443 -.00000096 00000-0 45490-4 0 9992 2 25163 51.9983 224.4990 0002763 329.0921 63.6168 12.63310860120483 GLOBALSTAR M002 1 25164U 98008C 22145.32083128 -.00000077 00000-0 -68420-5 0 9995 2 25164 51.9980 165.5057 0001628 259.6606 100.4030 11.61483159 54053 GLOBALSTAR M003 1 25165U 98008D 22146.13066910 -.00000142 00000-0 -55797-3 0 9990 2 25165 51.9594 25.7981 0007327 195.5096 286.3309 12.11851744 97742 GLOBALSTAR M014 1 25306U 98023A 22146.18357221 -.00000061 00000-0 31242-3 0 9995 2 25306 51.9818 110.0553 0000847 65.0122 36.4678 11.65448506 60819 GLOBALSTAR M006 1 25307U 98023B 22146.11837205 -.00000056 00000-0 39338-3 0 9992 2 25307 51.9908 120.9119 0003530 269.6634 171.8198 11.58144637 87393 GLOBALSTAR M015 1 25308U 98023C 22146.19951733 -.00000046 00000-0 61651-3 0 9996 2 25308 51.9777 167.9823 0013012 249.3227 187.3325 11.48847914 65959 GLOBALSTAR M008 1 25309U 98023D 22146.17928997 -.00000060 00000-0 28674-3 0 9995 2 25309 51.9947 199.2374 0002399 336.7509 58.6340 12.36004220 99900 GLOBALSTAR M023 1 25621U 99004A 22146.19468375 -.00000160 00000-0 -31207-3 0 9991 2 25621 52.0102 217.4219 0010536 176.7268 211.1823 12.62402616 74612 GLOBALSTAR M040 1 25622U 99004B 22145.60710091 -.00000075 00000-0 15797-3 0 9992 2 25622 51.9906 221.7371 0000759 115.8007 33.2125 12.61921298 74025 GLOBALSTAR M036 1 25623U 99004C 22145.77836955 -.00000186 00000-0 -15033-2 0 9995 2 25623 51.9980 308.0194 0011503 73.3379 31.3569 11.86556239 46215 GLOBALSTAR M038 1 25624U 99004D 22145.98309720 -.00000090 00000-0 43646-4 0 9990 2 25624 51.9995 51.6544 0000937 236.9204 135.4639 12.32462610 64456 GLOBALSTAR M022 1 25649U 99012A 22146.24337076 -.00000063 00000-0 28947-3 0 9997 2 25649 52.0044 89.8384 0002422 108.5445 36.5883 12.02454763 41967 GLOBALSTAR M041 1 25650U 99012B 22145.60120104 -.00000062 00000-0 30608-3 0 9996 2 25650 52.0031 298.9328 0001838 281.9677 78.0953 11.96630095 44361 GLOBALSTAR M046 1 25651U 99012C 22146.20670337 -.00000123 00000-0 -37419-3 0 9998 2 25651 52.0058 80.8699 0001754 164.3750 338.3703 12.09357887 48744 GLOBALSTAR M037 1 25652U 99012D 22145.90405130 -.00000063 00000-0 22683-3 0 9991 2 25652 52.0025 349.3480 0001273 201.5283 266.1505 12.62350175 70038 GLOBALSTAR M045 1 25676U 99019A 22145.58887654 -.00000103 00000-0 -80987-4 0 9991 2 25676 51.9973 253.2904 0001320 139.5249 324.9592 12.26992935 56076 GLOBALSTAR M019 1 25677U 99019B 22145.62106258 -.00000159 00000-0 -71871-3 0 9993 2 25677 51.9887 304.9250 0001325 173.6147 266.2107 12.13827843 49309 GLOBALSTAR M044 1 25678U 99019C 22146.07904588 -.00000060 00000-0 33357-3 0 9993 2 25678 51.9950 115.1422 0006573 43.4953 34.3615 11.90207829 38163 GLOBALSTAR M042 1 25679U 99019D 22145.82115668 -.00000054 00000-0 36088-3 0 9996 2 25679 52.0027 327.9537 0003296 150.8472 312.2020 12.22030022 48523 GLOBALSTAR M025 1 25770U 99031A 22145.54155987 -.00000071 00000-0 -11232-3 0 9993 2 25770 51.9809 230.6462 0001259 83.5201 16.0277 11.22539213356088 GLOBALSTAR M049 1 25771U 99031B 22145.48725150 -.00000119 00000-0 -18538-2 0 9990 2 25771 51.9857 209.3057 0002571 299.3304 60.7236 11.12091945992951 GLOBALSTAR M047 1 25772U 99031C 22145.72255820 -.00000070 00000-0 -96968-5 0 9992 2 25772 51.9848 312.5988 0017074 141.3094 218.8938 11.31907253344458 GLOBALSTAR M052 1 25773U 99031D 22145.82401973 -.00000049 00000-0 57699-3 0 9997 2 25773 51.9886 332.9477 0003283 114.8423 345.7339 11.15039428353758 GLOBALSTAR M035 1 25851U 99037A 22145.91545691 -.00000091 00000-0 -10328-2 0 9991 2 25851 51.9980 28.7603 0013675 332.8578 110.2923 11.04520138972684 GLOBALSTAR M032 1 25852U 99037B 22145.90291602 -.00000080 00000-0 -41243-3 0 9990 2 25852 51.9961 291.1469 0006219 84.3564 275.7945 11.19046945 9654 GLOBALSTAR M051 1 25853U 99037C 22145.63124571 -.00000073 00000-0 -18538-4 0 9995 2 25853 51.9780 219.2078 0000289 55.7119 304.3719 11.42181317 4573 GLOBALSTAR M030 1 25854U 99037D 22145.26181491 -.00000056 00000-0 40157-3 0 9990 2 25854 51.9871 97.3321 0003751 183.9779 176.1008 11.55078625 20748 GLOBALSTAR M048 1 25872U 99041A 22145.22104601 -.00000064 00000-0 16478-3 0 9997 2 25872 51.9350 111.9517 0013340 45.4723 55.9658 11.33830818998066 GLOBALSTAR M026 1 25873U 99041B 22145.48565045 -.00000093 00000-0 -10778-2 0 9998 2 25873 51.9960 159.4597 0001196 197.9992 332.6486 11.06801628 24618 GLOBALSTAR M043 1 25874U 99041C 22146.11503188 -.00000032 00000-0 10612-2 0 9999 2 25874 51.9354 172.9301 0013239 203.9554 189.0313 11.25670963996991 GLOBALSTAR M028 1 25875U 99041D 22145.82257998 -.00000096 00000-0 27317-4 0 9994 2 25875 51.9633 287.6174 0064180 162.7605 197.5455 12.50519469 50257 GLOBALSTAR M024 1 25883U 99043A 22145.89902319 -.00000113 00000-0 -17067-2 0 9996 2 25883 52.0051 23.8129 0002014 68.9125 15.0459 11.10150156990670 GLOBALSTAR M027 1 25884U 99043B 22145.21420270 -.00000092 00000-0 -10761-2 0 9994 2 25884 52.0220 71.6681 0021693 344.5063 15.5065 11.04361985 17610 GLOBALSTAR M054 1 25885U 99043C 22145.84172616 -.00000069 00000-0 70074-4 0 9990 2 25885 52.0169 25.2081 0006665 37.7780 43.2469 11.39185981991593 GLOBALSTAR M053 1 25886U 99043D 22145.67927600 -.00000064 00000-0 12343-3 0 9992 2 25886 51.9984 270.6466 0002604 343.7984 122.0316 11.27644068993250 GLOBALSTAR M058 1 25907U 99049A 22146.19899002 -.00000098 00000-0 -18708-3 0 9993 2 25907 51.9925 214.3423 0001841 248.8367 111.2271 11.93149863 19298 GLOBALSTAR M050 1 25908U 99049B 22145.74485508 -.00000081 00000-0 79803-4 0 9991 2 25908 51.9997 306.7846 0008212 325.3654 135.7795 12.07403836 13084 GLOBALSTAR M033 1 25909U 99049C 22145.68919401 .00000024 00000-0 11164-2 0 9999 2 25909 51.9908 256.0240 0013366 146.4054 213.7643 12.20246199399194 GLOBALSTAR M055 1 25910U 99049D 22145.93738023 -.00000065 00000-0 25220-3 0 9993 2 25910 52.0032 320.4728 0006248 334.0551 25.9987 12.29366013 30969 GLOBALSTAR M057 1 25943U 99058A 22145.66199581 -.00000100 00000-0 -61606-4 0 9999 2 25943 51.9993 282.3288 0002721 207.5538 152.5167 12.24758793 29877 GLOBALSTAR M059 1 25944U 99058B 22146.08681531 -.00000099 00000-0 -15850-3 0 9994 2 25944 52.0044 351.8716 0000294 84.9256 94.1712 11.99942165 28563 GLOBALSTAR M056 1 25945U 99058C 22146.06709088 -.00000016 00000-0 82897-3 0 9994 2 25945 51.9991 22.6183 0001840 100.1017 48.5617 12.04745693 27906 GLOBALSTAR M031 1 25946U 99058D 22146.04236198 .00000037 00000-0 12958-2 0 9992 2 25946 51.9983 341.8627 0002362 81.0558 91.6240 12.15979081 28751 GLOBALSTAR M039 1 25961U 99062A 22146.17726176 -.00000085 00000-0 10336-3 0 9991 2 25961 51.9854 73.6564 0003512 36.6717 323.4389 12.62239733 39056 GLOBALSTAR M034 1 25962U 99062B 22145.10517052 -.00000075 00000-0 94372-4 0 9997 2 25962 51.9901 40.2164 0014987 85.5303 63.2224 11.79404209 6340 GLOBALSTAR M029 1 25963U 99062C 22145.58353543 -.00000138 00000-0 -64729-3 0 9996 2 25963 51.9806 242.2167 0002660 91.7757 10.5217 11.99854000 34842 GLOBALSTAR M061 1 25964U 99062D 22145.71552147 -.00000058 00000-0 35924-3 0 9998 2 25964 51.9772 207.8538 0005533 23.5923 126.4302 11.76737171989502 GLOBALSTAR M063 1 26081U 00008A 22146.16255212 -.00000059 00000-0 34218-3 0 9990 2 26081 51.9916 175.9321 0004700 330.5212 72.5412 11.86132714 24961 GLOBALSTAR M062 1 26082U 00008B 22145.42682374 -.00000059 00000-0 28107-3 0 9992 2 26082 51.9814 145.4581 0006702 244.2195 262.7757 12.43385507357445 GLOBALSTAR M060 1 26083U 00008C 22145.68681475 -.00000098 00000-0 -71312-4 0 9993 2 26083 52.0032 306.5016 0003235 27.9978 57.9118 12.17592860 16110 GLOBALSTAR M064 1 26084U 00008D 22145.68465760 -.00000075 00000-0 12362-3 0 9994 2 26084 52.0033 289.2103 0002075 94.8953 265.2116 11.88496354 34102 GLOBALSTAR M065 1 31571U 07020A 22146.06747422 -.00000064 00000-0 22195-3 0 9996 2 31571 51.9933 29.7838 0000807 81.3734 66.2031 12.62269428692521 GLOBALSTAR M069 1 31573U 07020C 22145.74908994 -.00000061 00000-0 24044-3 0 9997 2 31573 51.9968 347.0408 0001293 114.6793 325.2695 12.62270477693302 GLOBALSTAR M072 1 31574U 07020D 22146.14600737 -.00000082 00000-0 11943-3 0 9994 2 31574 52.0091 81.0877 0001362 39.7204 65.5806 12.62279796691789 GLOBALSTAR M071 1 31576U 07020F 22145.77553247 -.00000071 00000-0 18460-3 0 9996 2 31576 52.0085 351.5342 0001776 124.9464 316.3114 12.62264694354494 GLOBALSTAR M067 1 32263U 07048A 22146.19062007 -.00000080 00000-0 13158-3 0 9995 2 32263 51.9742 67.0722 0001446 86.4632 79.9897 12.40608836670969 GLOBALSTAR M070 1 32264U 07048B 22145.93633375 -.00000099 00000-0 27709-4 0 9997 2 32264 51.9755 294.9517 0001380 176.3759 335.5488 12.62275074673422 GLOBALSTAR M066 1 32265U 07048C 22146.19246825 -.00000079 00000-0 13917-3 0 9990 2 32265 51.9644 156.4771 0001384 314.1068 123.5011 12.62260574675689 GLOBALSTAR M068 1 32266U 07048D 22146.12928160 -.00000069 00000-0 19153-3 0 9990 2 32266 51.9874 110.1713 0000438 160.8636 262.3235 12.62736577676596 GLOBALSTAR M079 1 37188U 10054A 22145.62811249 -.00000087 00000-0 94859-4 0 9999 2 37188 52.0047 304.8633 0000672 105.7593 335.1523 12.62270514535194 GLOBALSTAR M074 1 37189U 10054B 22145.98649700 -.00000091 00000-0 69104-4 0 9990 2 37189 52.0024 303.2687 0000778 115.4359 34.7356 12.62268014535915 GLOBALSTAR M076 1 37190U 10054C 22145.76526347 -.00000076 00000-0 15690-3 0 9992 2 37190 52.0037 304.0098 0000953 82.3874 22.6694 12.62275694535536 GLOBALSTAR M077 1 37191U 10054D 22145.50908597 -.00000100 00000-0 18474-4 0 9998 2 37191 52.0070 261.3244 0000699 131.3858 308.4935 12.62270524535873 GLOBALSTAR M075 1 37192U 10054E 22145.85727772 -.00000078 00000-0 14130-3 0 9999 2 37192 51.9967 346.6084 0000817 77.9903 24.8241 12.62266046535147 GLOBALSTAR M073 1 37193U 10054F 22145.61959821 -.00000106 00000-0 -99654-5 0 9995 2 37193 52.0061 260.3003 0000627 125.8957 336.3342 12.62265677536579 GLOBALSTAR M083 1 37739U 11033A 22146.16859847 -.00000092 00000-0 67539-4 0 9996 2 37739 51.9841 208.8884 0000198 208.9268 169.3855 12.62268832506020 GLOBALSTAR M088 1 37740U 11033B 22145.38246382 -.00000102 00000-0 12565-4 0 9996 2 37740 51.9715 117.7119 0000546 1.6914 163.1758 12.62264180501104 GLOBALSTAR M091 1 37741U 11033C 22145.23739865 -.00000103 00000-0 31167-5 0 9995 2 37741 52.0001 79.7063 0000580 23.6309 140.7911 12.62265771501873 GLOBALSTAR M085 1 37742U 11033D 22145.83851531 -.00000092 00000-0 63188-4 0 9991 2 37742 51.9889 29.9068 0000728 64.8626 12.5463 12.62265919502469 GLOBALSTAR M081 1 37743U 11033E 22145.86528597 -.00000085 00000-0 10325-3 0 9994 2 37743 51.9983 31.9222 0000834 53.9300 25.1343 12.62270371502999 GLOBALSTAR M089 1 37744U 11033F 22145.74681233 -.00000077 00000-0 14775-3 0 9993 2 37744 51.9947 346.7233 0001140 92.6861 347.3402 12.62266233503440 GLOBALSTAR M084 1 38040U 11080A 22145.52846919 -.00000087 00000-0 91472-4 0 9996 2 38040 51.9994 214.0855 0000459 126.3186 340.8948 12.62266575481397 GLOBALSTAR M080 1 38041U 11080B 22146.19818948 -.00000092 00000-0 64830-4 0 9996 2 38041 52.0044 213.2614 0000478 117.8415 273.4611 12.62268396481741 GLOBALSTAR M082 1 38042U 11080C 22146.22147116 -.00000085 00000-0 10594-3 0 9992 2 38042 52.0043 168.5182 0000446 254.3945 182.6208 12.62269735482486 GLOBALSTAR M092 1 38043U 11080D 22145.73668765 -.00000099 00000-0 23881-4 0 9995 2 38043 52.0082 260.3055 0000941 128.2750 27.0494 12.62273103480709 GLOBALSTAR M090 1 38044U 11080E 22146.07613766 -.00000082 00000-0 12000-3 0 9997 2 38044 51.9854 164.2081 0000189 325.5720 52.4734 12.62264748482457 GLOBALSTAR M086 1 38045U 11080F 22145.50124569 -.00000082 00000-0 11952-3 0 9998 2 38045 51.9865 166.4231 0001298 10.9612 153.4310 12.62266865482384 GLOBALSTAR M097 1 39072U 13005A 22146.20458783 -.00000102 00000-0 80916-5 0 9995 2 39072 52.0061 77.6897 0000699 20.6879 339.4016 12.62263887429700 GLOBALSTAR M093 1 39073U 13005B 22146.09849495 -.00000101 00000-0 15059-4 0 9991 2 39073 51.9820 73.1036 0000760 15.1597 344.9292 12.62267519429683 GLOBALSTAR M094 1 39074U 13005C 22145.86126003 -.00000074 00000-0 16427-3 0 9997 2 39074 51.9974 347.0959 0000828 83.0170 277.0791 12.62267566431143 GLOBALSTAR M096 1 39075U 13005D 22145.87459996 -.00000099 00000-0 25104-4 0 9999 2 39075 52.0098 34.6950 0000803 50.7104 309.3834 12.62268427430068 GLOBALSTAR M078 1 39076U 13005E 22145.37253931 -.00000095 00000-0 49760-4 0 9996 2 39076 51.9854 122.2501 0000523 229.2632 130.8189 12.62269700428625 GLOBALSTAR M095 1 39077U 13005F 22146.11194493 -.00000099 00000-0 28284-4 0 9999 2 39077 51.9785 117.7527 0000487 298.1028 61.9789 12.62269209428937